When you browse on this site, cookies collect data to enhance your experience and personalize the content and advertising you see.
Visit our Privacy Policy to learn more. By continuing to use the site, you agree to this use of cookies and data.
  • In Romania
  • List of Countries
  • For 7 days
  • Water Temperature
  • Satellite Maps
  • Weather Map
  • Weather Widgets
  • user-avatar
    Login

    Hourly Weather Sumgayit

    Today, 27 June, Thursday

    Time Temperature Precipitation Wind Pressure Humidity
    00:00 +29°C° 0 mm 9 mps 738 mmHg 42%
    01:00 +28°C° 0 mm 9 mps 738 mmHg 46%
    02:00 +28°C° 0 mm 9 mps 738 mmHg 50%
    03:00 +27°C° 0 mm 8 mps 738 mmHg 55%
    04:00 +27°C° 0 mm 8 mps 738 mmHg 52%
    05:00 +28°C° 0 mm 7 mps 738 mmHg 49%
    06:00 +28°C° 0 mm 6 mps 738 mmHg 47%
    07:00 +29°C° 0 mm 7 mps 738 mmHg 44%
    08:00 +30°C° 0 mm 7 mps 738 mmHg 41%
    09:00 +32°C° 0 mm 8 mps 738 mmHg 38%
    10:00 +33°C° 0 mm 8 mps 738 mmHg 36%
    11:00 +34°C° 0 mm 8 mps 738 mmHg 34%
    12:00 +34°C° 0 mm 8 mps 737 mmHg 32%
    13:00 +34°C° 0 mm 8 mps 737 mmHg 33%
    14:00 +34°C° 0 mm 9 mps 737 mmHg 34%
    15:00 +34°C° 0 mm 9 mps 736 mmHg 35%
    16:00 +33°C° 0 mm 8 mps 736 mmHg 35%
    17:00 +32°C° 0 mm 7 mps 735 mmHg 36%
    18:00 +30°C° 0 mm 6 mps 735 mmHg 37%
    19:00 +30°C° 0 mm 6 mps 735 mmHg 38%
    20:00 +29°C° 0 mm 6 mps 735 mmHg 40%
    21:00 +28°C° 0 mm 5 mps 735 mmHg 41%
    22:00 +28°C° 0 mm 4 mps 735 mmHg 40%
    23:00 +28°C° 0 mm 4 mps 734 mmHg 39%

    Tomorrow, 28 June, Friday

    Time Temperature Precipitation Wind Pressure Humidity
    00:00 +27°C° 0 mm 3 mps 734 mmHg 38%
    01:00 +27°C° 0 mm 2 mps 734 mmHg 40%
    02:00 +27°C° 0 mm 2 mps 734 mmHg 41%
    03:00 +26°C° 0 mm 2 mps 733 mmHg 43%
    04:00 +27°C° 0 mm 1 mps 733 mmHg 41%
    05:00 +27°C° 0 mm 1 mps 733 mmHg 40%
    06:00 +28°C° 0 mm 1 mps 733 mmHg 38%
    07:00 +29°C° 0 mm 1 mps 733 mmHg 35%
    08:00 +30°C° 0 mm 1 mps 733 mmHg 31%
    09:00 +31°C° 0 mm 1 mps 733 mmHg 28%
    10:00 +34°C° 0 mm 2 mps 732 mmHg 26%
    11:00 +35°C° 0 mm 2 mps 732 mmHg 24%
    12:00 +36°C° 0 mm 3 mps 731 mmHg 22%
    13:00 +36°C° 0 mm 3 mps 731 mmHg 21%
    14:00 +37°C° 0 mm 4 mps 731 mmHg 21%
    15:00 +37°C° 0 mm 4 mps 730 mmHg 20%
    16:00 +36°C° 0 mm 4 mps 730 mmHg 22%
    17:00 +35°C° 0 mm 4 mps 730 mmHg 24%
    18:00 +34°C° 0 mm 4 mps 729 mmHg 26%
    19:00 +34°C° 0 mm 3 mps 729 mmHg 28%
    20:00 +32°C° 0 mm 2 mps 729 mmHg 30%
    21:00 +31°C° 0 mm 2 mps 729 mmHg 32%
    22:00 +31°C° 0 mm 2 mps 729 mmHg 32%
    23:00 +31°C° 0 mm 2 mps 729 mmHg 32%

    Day after tomorrow, 29 June, Saturday

    Time Temperature Precipitation Wind Pressure Humidity
    00:00 +30°C° 0 mm 2 mps 729 mmHg 32%
    01:00 +30°C° 0 mm 2 mps 729 mmHg 33%
    02:00 +30°C° 0 mm 2 mps 729 mmHg 33%
    03:00 +30°C° 0 mm 2 mps 729 mmHg 34%
    04:00 +29°C° 0 mm 4 mps 729 mmHg 36%
    05:00 +29°C° 0 mm 5 mps 729 mmHg 39%
    06:00 +28°C° 0 mm 6 mps 729 mmHg 42%
    07:00 +29°C° 0 mm 7 mps 729 mmHg 42%
    08:00 +30°C° 0 mm 7 mps 730 mmHg 42%
    09:00 +32°C° 0 mm 7 mps 730 mmHg 41%
    10:00 +33°C° 0 mm 8 mps 730 mmHg 42%
    11:00 +33°C° 0 mm 9 mps 730 mmHg 44%
    12:00 +33°C° 0 mm 9 mps 729 mmHg 45%
    13:00 +33°C° 0 mm 10 mps 729 mmHg 45%
    14:00 +33°C° 0 mm 10 mps 729 mmHg 46%
    15:00 +33°C° 0 mm 11 mps 728 mmHg 46%
    16:00 +32°C° 0 mm 11 mps 728 mmHg 47%
    17:00 +31°C° 0 mm 11 mps 728 mmHg 47%
    18:00 +31°C° 0 mm 10 mps 728 mmHg 48%
    19:00 +29°C° 0 mm 10 mps 728 mmHg 48%
    20:00 +29°C° 0 mm 10 mps 729 mmHg 49%
    21:00 +28°C° 0 mm 10 mps 729 mmHg 49%
    22:00 +28°C° 0.1 mm 9 mps 730 mmHg 52%
    23:00 +27°C° 0.1 mm 9 mps 730 mmHg 56%

    30 June, Sunday

    Time Temperature Precipitation Wind Pressure Humidity
    00:00 +27°C° 0.1 mm 8 mps 730 mmHg 59%
    01:00 +26°C° 0 mm 8 mps 730 mmHg 62%
    02:00 +24°C° 0 mm 8 mps 731 mmHg 65%
    03:00 +24°C° 0 mm 8 mps 731 mmHg 67%
    04:00 +24°C° 0 mm 8 mps 731 mmHg 65%
    05:00 +23°C° 0 mm 9 mps 732 mmHg 64%
    06:00 +23°C° 0 mm 10 mps 732 mmHg 62%
    07:00 +24°C° 0 mm 10 mps 733 mmHg 58%
    08:00 +26°C° 0 mm 10 mps 733 mmHg 54%
    09:00 +26°C° 0 mm 10 mps 734 mmHg 49%
    10:00 +27°C° 0 mm 11 mps 734 mmHg 48%
    11:00 +27°C° 0 mm 11 mps 734 mmHg 46%
    12:00 +28°C° 0 mm 11 mps 734 mmHg 44%
    13:00 +28°C° 0 mm 11 mps 734 mmHg 45%
    14:00 +27°C° 0 mm 11 mps 734 mmHg 46%
    15:00 +27°C° 0 mm 12 mps 734 mmHg 48%
    16:00 +26°C° 0 mm 11 mps 734 mmHg 49%
    17:00 +24°C° 0 mm 11 mps 734 mmHg 51%
    18:00 +24°C° 0 mm 11 mps 734 mmHg 53%
    19:00 +24°C° 0 mm 10 mps 734 mmHg 54%
    20:00 +23°C° 0 mm 9 mps 734 mmHg 55%
    21:00 +23°C° 0 mm 8 mps 734 mmHg 57%
    22:00 +23°C° 0 mm 8 mps 734 mmHg 58%
    23:00 +23°C° 0 mm 9 mps 734 mmHg 59%

    1 July, Monday

    Time Temperature Precipitation Wind Pressure Humidity
    00:00 +22°C° 0 mm 9 mps 734 mmHg 61%
    01:00 +22°C° 0 mm 8 mps 734 mmHg 63%
    02:00 +22°C° 0 mm 8 mps 734 mmHg 66%
    03:00 +21°C° 0 mm 8 mps 734 mmHg 69%
    04:00 +21°C° 0.1 mm 7 mps 734 mmHg 71%
    05:00 +21°C° 0.1 mm 7 mps 734 mmHg 73%
    06:00 +20°C° 0.1 mm 7 mps 735 mmHg 74%
    07:00 +20°C° 0.5 mm 7 mps 735 mmHg 73%
    08:00 +20°C° 0.5 mm 7 mps 735 mmHg 72%
    09:00 +20°C° 0.5 mm 8 mps 735 mmHg 71%
    10:00 +20°C° 0.1 mm 8 mps 736 mmHg 70%
    11:00 +20°C° 0.1 mm 8 mps 736 mmHg 69%
    12:00 +21°C° 0.1 mm 8 mps 736 mmHg 68%
    13:00 +21°C° 0 mm 8 mps 736 mmHg 66%
    14:00 +21°C° 0 mm 8 mps 736 mmHg 63%
    15:00 +21°C° 0 mm 9 mps 736 mmHg 60%
    16:00 +21°C° 0 mm 9 mps 736 mmHg 60%
    17:00 +19°C° 0 mm 9 mps 736 mmHg 59%
    18:00 +19°C° 0 mm 9 mps 736 mmHg 59%
    19:00 +20°C° 0.2 mm 7 mps 736 mmHg 61%
    20:00 +20°C° 0.2 mm 6 mps 736 mmHg 64%
    21:00 +19°C° 0.2 mm 5 mps 737 mmHg 67%
    22:00 +19°C° 0.1 mm 4 mps 737 mmHg 67%
    23:00 +20°C° 0.1 mm 3 mps 737 mmHg 68%

    2 July, Tuesday

    Time Temperature Precipitation Wind Pressure Humidity
    00:00 +21°C° 0.1 mm 1 mps 737 mmHg 69%
    01:00 +20°C° 0.1 mm 1 mps 737 mmHg 70%
    02:00 +20°C° 0.1 mm 1 mps 737 mmHg 71%
    03:00 +20°C° 0.1 mm 1 mps 737 mmHg 72%
    04:00 +19°C° 0 mm 2 mps 738 mmHg 70%
    05:00 +20°C° 0 mm 3 mps 738 mmHg 68%
    06:00 +20°C° 0 mm 4 mps 739 mmHg 66%
    07:00 +21°C° 0 mm 4 mps 739 mmHg 58%
    08:00 +22°C° 0 mm 4 mps 739 mmHg 50%
    09:00 +24°C° 0 mm 3 mps 740 mmHg 42%
    10:00 +25°C° 0 mm 3 mps 740 mmHg 41%
    11:00 +26°C° 0 mm 3 mps 740 mmHg 39%
    12:00 +26°C° 0 mm 3 mps 740 mmHg 38%
    13:00 +27°C° 0 mm 4 mps 739 mmHg 36%
    14:00 +27°C° 0 mm 4 mps 739 mmHg 35%
    15:00 +28°C° 0 mm 4 mps 739 mmHg 34%
    16:00 +27°C° 0 mm 5 mps 739 mmHg 39%
    17:00 +26°C° 0 mm 6 mps 739 mmHg 45%
    18:00 +24°C° 0 mm 6 mps 739 mmHg 51%
    19:00 +23°C° 0 mm 6 mps 739 mmHg 55%
    20:00 +23°C° 0 mm 7 mps 739 mmHg 60%
    21:00 +22°C° 0 mm 7 mps 739 mmHg 65%
    22:00 +22°C° 0 mm 6 mps 739 mmHg 66%
    23:00 +22°C° 0 mm 5 mps 739 mmHg 68%
    Show more